Temp
79 81 82 82 83 83 83 81 82 82 84 84 83 85 86 85 85 83 82 82 82 83 83 82 82 83 84 84 83 83 82 82 80 79 79 79 75 75 77 76 77 78 79 77 77 74 74 70 69 72 73 71 71 70 71 72 72 69 69 67 69 70 71
82 83 84 84 83 82 81 82 82 83 84 84 85 84 85 86 85 83 83 82 82 83 84 84 83 84 82 82 80 80 80 80 81 81 80 79 78 78 76 75 76 77 78 78 77 76 73 72 73 71 70 72 70 69 70 72 71 71 70 70 71 71 70
81 83 85 83 82 82 81 80 81 81 83 82 83 84 85 87 86 85 83 83 82 83 83 84 84 83 82 81 81 81 80 80 81 81 80 80 81 80 80 79 76 76 75 75 74 74 74 74 71 73 73 67 64 67 69 68 70 70 70 70 70 72 72
80 82 81 81 82 81 81 81 81 81 81 81 82 82 84 86 85 85 84 84 83 82 83 84 83 83 82 82 81 81 81 80 80 81 80 80 80 79 79 79 78 78 76 75 75 75 74 73 72 73 73 73 68 69 69 69 69 70 70 70 70 71 71
79 81 80 80 81 81 82 82 82 82 80 80 80 81 82 84 84 84 84 84 84 82 82 83 84 84 83 83 82 81 81 81 81 80 80 78 78 78 78 79 79 79 79 78 79 78 77 75 74 71 72 70 70 74 74 71 70 69 69 70 70 71 72
79 81 82 82 82 82 83 82 81 81 81 79 78 79 81 82 84 82 82 82 83 82 82 83 83 83 83 82 82 81 81 80 81 80 79 79 78 77 78 79 80 80 80 81 80 78 77 76 73 70 70 71 69 69 69 69 67 69 71 71 71 71 73
79 80 81 82 82 83 83 81 79 80 80 79 79 78 81 83 84 84 83 83 83 84 83 82 82 83 83 83 82 81 81 81 82 80 80 80 79 79 80 80 79 80 80 81 80 78 75 73 72 71 70 71 71 71 70 69 71 68 70 73 73 71 72
79 81 82 83 82 82 82 80 79 80 80 80 80 80 81 81 82 84 83 83 83 83 83 82 82 83 82 82 83 82 82 82 81 80 80 79 79 79 79 79 80 80 80 80 79 77 76 74 74 73 72 70 68 70 68 71 71 69 71 74 74 73 73
80 81 81 82 81 80 79 79 78 78 79 80 81 80 80 81 82 83 83 83 84 83 83 83 82 82 82 81 82 82 81 82 80 80 80 80 79 79 78 79 79 79 80 80 79 77 76 76 76 76 75 73 70 66 68 67 68 68 74 71 74 75 73
79 79 80 81 80 78 77 78 78 78 79 80 81 81 81 80 80 82 83 83 83 83 83 82 82 82 81 81 82 82 81 81 81 80 80 80 80 80 79 79 79 79 80 79 78 76 76 76 75 76 76 74 73 68 64 64 67 67 73 76 70 73 76
80 80 81 82 80 77 77 78 79 79 79 80 82 82 82 81 81 82 83 83 83 83 83 83 82 82 81 81 82 82 82 82 81 81 80 80 80 80 80 80 79 79 80 77 76 76 77 77 75 76 75 76 75 70 68 66 70 74 72 74 76 75 75
81 81 81 82 81 80 79 80 80 80 79 80 81 81 81 81 81 82 83 84 83 83 83 83 82 82 82 81 81 81 82 82 81 80 81 80 80 80 80 79 79 79 79 77 75 76 77 77 76 76 75 74 72 71 71 72 70 75 75 69 73 79 75
82 80 80 80 80 81 81 81 81 79 79 81 81 80 80 81 82 82 83 83 83 83 83 83 83 82 82 82 82 82 82 82 81 80 81 82 82 81 80 80 81 80 79 78 76 76 77 77 76 75 75 74 72 70 71 72 71 70 72 73 74 78 79
79 80 79 80 81 82 82 81 81 80 79 78 78 79 79 82 82 80 82 83 84 83 83 82 83 82 82 82 82 82 82 82 81 81 81 81 83 82 81 81 82 81 81 77 78 78 77 76 72 70 73 73 71 70 71 72 71 70 69 72 74 75 78
81 81 80 80 80 81 81 81 81 81 80 79 80 81 81 80 80 80 82 84 84 85 84 84 83 83 82 82 81 82 81 82 82 82 81 82 82 82 81 81 82 83 82 78 77 80 80 75 73 71 72 72 71 70 72 72 71 70 65 69 73 76 76
80 80 80 81 80 80 80 81 82 81 80 81 82 82 81 81 81 81 83 84 85 85 85 85 84 83 82 83 83 82 82 82 81 80 81 81 83 83 81 80 81 82 81 78 79 79 78 73 72 71 72 72 70 71 71 71 70 69 68 67 73 75 75
81 80 80 80 80 79 79 80 82 82 83 82 82 82 83 84 83 82 82 84 85 85 85 84 84 84 84 84 84 83 83 82 82 82 82 83 84 83 82 80 81 81 79 78 79 79 76 74 72 72 70 70 70 71 72 72 72 71 70 67 71 75 75
79 79 80 80 80 81 81 81 82 84 83 82 82 81 82 83 82 82 81 84 85 85 84 85 85 84 84 84 84 83 84 83 82 82 82 82 80 83 82 81 81 82 79 76 77 77 76 72 72 70 69 71 72 73 73 73 73 73 72 69 70 73 75
79 80 80 80 81 81 82 82 84 82 84 83 81 80 80 81 82 82 81 82 84 85 85 85 86 85 85 84 83 83 84 83 82 83 83 82 83 83 82 83 82 82 80 76 76 76 76 74 74 72 71 72 74 75 73 73 72 71 72 72 71 70 73
80 81 80 80 81 82 83 83 84 84 84 84 83 81 80 80 81 82 82 81 81 82 82 83 84 84 84 85 84 84 83 82 81 80 81 83 83 83 84 84 82 82 80 78 77 76 75 74 73 71 70 72 75 75 73 72 72 71 70 70 71 72 72
81 81 82 82 82 82 83 83 83 84 84 83 82 83 83 81 81 83 83 83 82 82 81 82 83 84 85 84 82 83 82 80 79 79 80 81 82 83 83 83 83 83 82 80 78 77 76 74 73 70 71 73 75 74 72 71 70 70 69 69 69 71 73
82 82 82 82 82 82 82 83 83 84 83 82 82 84 85 84 82 82 83 83 83 83 82 81 82 81 81 82 81 80 80 79 78 79 80 81 81 82 83 83 83 84 81 76 70 71 70 69 74 72 73 74 75 74 72 70 69 70 71 70 71 73 73
82 82 82 81 82 82 82 82 82 82 83 83 84 84 85 84 84 82 82 83 83 82 81 81 74 65 66 78 78 78 79 80 80 81 80 80 80 80 81 82 82 76 71 68 64 60 58 59 64 74 78 75 76 74 72 70 69 71 72 72 73 73 71
82 82 82 82 82 82 83 82 81 82 82 82 82 82 82 83 83 83 83 82 82 81 81 81 60 55 56 61 75 77 79 80 81 81 79 78 78 79 80 83 83 75 71 66 67 54 55 54 55 56 59 64 68 74 72 69 70 71 72 74 75 74 72
81 81 82 83 82 83 83 82 82 82 82 81 81 81 81 82 83 83 82 83 81 81 81 67 52 53 54 54 62 78 79 80 80 79 78 78 79 80 80 81 81 80 77 77 77 67 58 53 52 51 49 52 55 56 59 70 72 71 73 75 74 74 73
81 81 81 82 82 82 82 82 81 81 81 81 80 80 81 82 83 83 82 82 82 82 82 59 50 51 52 52 53 66 80 81 79 78 78 79 80 81 82 81 80 79 79 68 71 71 66 64 53 51 51 50 51 51 50 47 49 67 76 75 74 74 74
80 81 81 81 81 82 81 81 80 81 81 80 79 79 80 80 82 82 82 82 81 82 83 60 51 50 51 50 51 58 81 79 77 78 79 80 80 81 81 79 77 76 78 74 74 73 71 69 67 64 62 65 68 63 52 48 48 47 54 71 75 74 75
81 81 81 81 81 81 80 80 80 81 80 80 79 79 79 79 81 82 82 82 82 81 83 54 51 49 49 49 49 55 79 78 77 78 78 80 81 79 79 78 76 76 77 76 74 72 72 70 67 64 64 65 68 69 70 70 70 71 72 72 75 77 77
80 81 80 80 79 80 79 79 79 79 79 79 79 80 80 81 81 81 82 82 82 80 79 48 50 48 48 49 47 68 77 77 76 76 77 78 79 78 78 77 77 76 78 77 65 55 62 71 69 66 63 65 66 68 70 66 60 62 70 75 74 76 79
81 80 80 80 79 78 78 78 78 80 79 79 79 79 80 80 81 82 82 82 82 81 80 53 47 47 48 47 52 74 75 75 76 76 77 77 78 77 77 77 77 75 76 77 61 50 51 60 71 68 66 65 66 68 70 72 57 52 52 52 53 52 47
82 80 80 79 78 78 78 78 79 80 79 79 78 79 80 81 82 82 81 81 82 80 82 59 45 47 47 46 58 74 76 75 75 75 77 77 78 78 78 67 71 76 74 75 51 49 48 61 71 70 69 67 67 68 70 73 72 65 50 49 48 47 45
82 81 80 80 78 78 77 77 78 79 79 80 79 80 80 81 81 82 82 81 71 78 82 64 45 46 46 46 59 74 76 76 74 75 75 76 76 77 77 69 62 67 72 67 46 49 47 60 71 70 70 70 69 69 71 73 72 70 68 66 66 65 62
81 81 81 80 79 78 78 78 77 78 79 80 79 80 80 81 82 82 82 81 78 79 81 75 56 45 46 46 52 74 77 75 74 74 76 76 76 76 76 77 67 50 51 51 45 46 47 51 69 73 73 72 71 70 75 74 74 74 72 69 69 69 68
80 80 81 80 79 78 78 77 76 77 77 79 80 80 79 80 80 81 82 82 81 79 81 78 61 45 46 46 49 59 78 76 76 76 76 75 75 76 78 78 80 58 48 47 45 45 47 47 55 74 74 74 74 74 70 76 73 62 73 71 70 70 70
80 79 81 80 79 77 77 79 78 77 78 77 78 77 78 79 79 79 80 81 81 80 77 69 67 46 46 46 48 51 74 78 78 78 76 77 77 78 78 81 82 64 47 48 45 44 45 47 46 69 74 60 58 55 74 76 77 73 73 73 72 72 72
78 79 79 79 79 77 78 79 78 78 78 78 77 76 77 78 78 77 79 80 80 80 80 76 55 54 45 46 46 48 53 68 57 75 78 77 77 78 79 80 79 58 44 47 46 44 45 45 47 59 56 52 52 48 59 76 77 75 73 73 73 72 72
78 79 79 78 78 78 78 77 76 77 77 76 76 75 75 76 76 73 76 78 79 80 81 80 59 51 51 44 45 47 48 50 54 73 77 79 79 80 81 80 77 49 46 46 46 45 45 45 51 49 48 49 48 48 71 74 73 74 72 71 71 72 72
MSLP
1014.92 1014.88 1014.80 1014.76 1014.80 1015.04 1015.36 1015.64 1015.80 1016.00 1016.00 1016.12 1016.52 1016.64 1016.68 1016.84 1017.00 1017.48 1017.76 1018.04 1018.28 1018.40 1018.64 1018.84 1018.96 1018.96 1018.96 1019.04 1019.28 1019.48 1019.68 1019.80 1020.16 1020.56 1020.92 1020.88 1021.72 1021.68 1021.44 1021.64 1021.64 1021.48 1021.44 1021.64 1021.88 1022.40 1022.32 1023.08 1023.28 1022.92 1022.84 1023.12 1023.36 1023.64 1023.76 1023.72 1023.88 1024.36 1024.52 1024.80 1024.88 1025.00 1025.08
1014.28 1014.24 1014.16 1014.36 1014.76 1014.92 1015.36 1015.44 1015.60 1015.76 1015.88 1015.92 1016.20 1016.48 1016.48 1016.48 1016.68 1017.08 1017.48 1017.84 1018.08 1018.20 1018.36 1018.48 1018.56 1018.68 1018.96 1019.12 1019.44 1019.60 1019.72 1019.72 1019.80 1020.00 1020.32 1020.64 1020.80 1021.08 1021.36 1021.80 1021.64 1021.68 1021.52 1021.56 1021.68 1021.84 1022.44 1022.80 1022.40 1022.76 1023.08 1022.88 1023.32 1023.56 1023.60 1023.48 1023.80 1023.96 1024.12 1024.40 1024.48 1024.64 1024.84
1014.04 1013.96 1013.92 1014.32 1014.56 1014.76 1015.20 1015.32 1015.52 1015.68 1015.76 1016.00 1016.12 1016.24 1016.36 1016.20 1016.44 1016.64 1017.16 1017.52 1017.88 1017.96 1018.16 1018.16 1018.24 1018.52 1018.80 1018.96 1019.20 1019.36 1019.48 1019.72 1019.60 1019.80 1020.20 1020.20 1020.28 1020.44 1020.56 1020.84 1021.52 1021.56 1021.72 1021.80 1021.92 1022.00 1022.00 1022.20 1022.76 1022.32 1022.24 1023.28 1023.84 1023.44 1023.32 1023.60 1023.76 1023.84 1023.88 1024.12 1024.32 1024.36 1024.44
1013.96 1013.92 1014.12 1014.28 1014.32 1014.56 1014.76 1015.00 1015.28 1015.48 1015.64 1015.88 1016.00 1016.12 1016.16 1016.00 1016.12 1016.28 1016.72 1017.08 1017.40 1017.72 1017.88 1018.00 1018.08 1018.28 1018.52 1018.76 1018.96 1019.12 1019.32 1019.52 1019.52 1019.68 1019.96 1020.08 1020.20 1020.40 1020.56 1020.60 1020.88 1021.12 1021.36 1021.64 1021.64 1021.68 1021.88 1022.20 1022.40 1022.20 1021.92 1022.12 1023.00 1023.04 1022.84 1023.08 1023.48 1023.56 1023.68 1023.80 1024.08 1024.04 1024.20
1013.80 1013.80 1013.92 1014.00 1014.00 1014.12 1014.28 1014.60 1014.80 1015.12 1015.52 1015.72 1015.88 1016.00 1016.12 1015.96 1015.96 1016.12 1016.40 1016.76 1017.12 1017.44 1017.72 1017.72 1017.76 1017.96 1018.16 1018.40 1018.64 1018.92 1019.08 1019.16 1019.20 1019.48 1019.76 1020.12 1020.28 1020.36 1020.52 1020.40 1020.48 1020.52 1020.64 1020.84 1020.72 1020.88 1021.28 1021.56 1021.92 1022.28 1022.08 1022.52 1022.52 1022.24 1022.28 1022.84 1023.12 1023.36 1023.48 1023.60 1023.80 1023.88 1023.92
1013.48 1013.40 1013.48 1013.52 1013.48 1013.72 1013.80 1014.12 1014.48 1014.88 1015.12 1015.64 1015.80 1015.92 1015.80 1015.84 1015.76 1015.96 1016.24 1016.64 1016.92 1017.12 1017.32 1017.52 1017.68 1017.80 1017.92 1018.20 1018.44 1018.68 1018.84 1019.04 1019.12 1019.32 1019.64 1019.84 1020.04 1020.36 1020.36 1020.16 1020.16 1020.24 1020.36 1020.20 1020.44 1020.80 1020.96 1021.24 1021.84 1022.28 1022.12 1022.16 1022.40 1022.40 1022.76 1022.88 1023.36 1023.32 1023.24 1023.32 1023.48 1023.64 1023.64
1013.08 1013.08 1013.12 1013.08 1013.00 1013.08 1013.28 1013.76 1014.12 1014.44 1014.68 1014.96 1015.28 1015.48 1015.24 1015.40 1015.44 1015.40 1015.60 1016.08 1016.40 1016.64 1016.96 1017.24 1017.44 1017.60 1017.72 1017.96 1018.24 1018.52 1018.68 1018.72 1018.80 1019.08 1019.32 1019.48 1019.64 1019.84 1019.84 1020.08 1020.00 1020.04 1020.04 1020.04 1020.28 1020.52 1021.04 1021.48 1021.80 1022.04 1022.08 1021.96 1021.92 1021.88 1022.28 1022.72 1022.52 1023.12 1023.04 1022.80 1022.92 1023.24 1023.32
1012.48 1012.64 1012.68 1012.64 1012.64 1012.88 1013.00 1013.32 1013.64 1013.88 1014.20 1014.36 1014.64 1014.80 1014.88 1015.12 1015.20 1015.12 1015.08 1015.56 1016.04 1016.36 1016.64 1017.00 1017.16 1017.32 1017.52 1017.76 1017.88 1018.16 1018.40 1018.44 1018.68 1018.84 1019.04 1019.28 1019.60 1019.76 1019.88 1019.88 1019.88 1019.88 1019.88 1019.88 1020.12 1020.48 1020.68 1021.08 1021.24 1021.32 1021.60 1022.00 1022.08 1021.88 1022.16 1022.16 1022.16 1022.64 1022.44 1022.40 1022.56 1022.92 1022.92
1011.96 1012.08 1012.24 1012.40 1012.52 1012.56 1012.88 1013.12 1013.40 1013.64 1013.88 1014.00 1014.16 1014.44 1014.60 1014.68 1014.80 1014.88 1014.88 1015.04 1015.52 1015.96 1016.28 1016.60 1016.92 1017.12 1017.32 1017.64 1017.76 1017.96 1018.32 1018.20 1018.52 1018.76 1018.84 1018.96 1019.24 1019.40 1019.60 1019.64 1019.80 1019.76 1019.60 1019.68 1019.92 1020.20 1020.44 1020.52 1020.68 1020.64 1020.76 1021.00 1021.48 1022.32 1021.92 1022.28 1022.28 1022.32 1021.72 1022.16 1022.20 1022.28 1022.60
1011.68 1011.96 1012.04 1012.04 1012.32 1012.44 1012.72 1012.84 1013.00 1013.28 1013.68 1013.84 1013.92 1013.84 1014.08 1014.24 1014.40 1014.48 1014.60 1014.64 1015.00 1015.48 1015.92 1016.24 1016.60 1016.88 1017.08 1017.36 1017.56 1017.76 1018.08 1018.08 1018.32 1018.56 1018.56 1018.76 1018.84 1019.00 1019.20 1019.44 1019.60 1019.56 1019.56 1019.60 1019.80 1020.04 1020.12 1020.28 1020.44 1020.44 1020.44 1020.68 1020.96 1021.80 1022.44 1022.72 1022.04 1022.12 1021.20 1021.12 1022.20 1022.12 1022.16
1011.16 1011.40 1011.56 1011.72 1011.84 1012.32 1012.44 1012.56 1012.60 1013.04 1013.36 1013.44 1013.44 1013.36 1013.52 1013.88 1014.04 1014.12 1014.24 1014.44 1014.64 1015.00 1015.48 1015.92 1016.28 1016.60 1016.84 1017.12 1017.24 1017.40 1017.56 1017.76 1018.12 1018.24 1018.32 1018.48 1018.60 1018.68 1018.84 1019.08 1019.24 1019.40 1019.32 1019.60 1019.88 1019.80 1019.84 1019.92 1020.12 1020.20 1020.28 1020.28 1020.48 1021.28 1021.56 1021.92 1021.08 1020.72 1021.16 1020.96 1021.00 1021.44 1021.84
1010.64 1010.88 1011.16 1011.24 1011.48 1011.88 1011.96 1012.12 1012.32 1012.56 1012.88 1013.08 1013.08 1013.00 1013.16 1013.44 1013.64 1013.76 1013.88 1014.12 1014.40 1014.76 1015.00 1015.48 1015.84 1016.24 1016.52 1016.84 1016.96 1017.20 1017.24 1017.52 1017.84 1018.08 1018.08 1018.24 1018.32 1018.48 1018.68 1018.92 1018.92 1019.04 1019.04 1019.40 1019.68 1019.68 1019.64 1019.68 1019.72 1019.96 1020.12 1020.32 1020.60 1020.84 1021.00 1020.88 1021.16 1020.36 1020.56 1021.64 1021.16 1020.60 1021.36
1010.16 1010.48 1010.80 1011.12 1011.28 1011.24 1011.24 1011.48 1011.84 1012.32 1012.52 1012.64 1012.60 1012.48 1012.80 1013.04 1013.28 1013.48 1013.56 1013.76 1014.12 1014.40 1014.76 1015.04 1015.40 1015.88 1016.24 1016.44 1016.64 1016.88 1016.96 1017.24 1017.60 1017.88 1017.88 1017.84 1017.96 1018.16 1018.40 1018.56 1018.56 1018.60 1018.76 1019.04 1019.44 1019.40 1019.40 1019.44 1019.64 1019.80 1019.84 1020.12 1020.44 1020.76 1020.84 1020.72 1020.80 1020.88 1020.88 1020.92 1021.00 1020.68 1020.72
1009.96 1010.12 1010.52 1010.64 1010.84 1010.72 1010.84 1010.96 1011.36 1011.76 1012.12 1012.32 1012.24 1012.36 1012.60 1012.68 1012.80 1013.08 1013.28 1013.56 1013.80 1014.12 1014.44 1014.80 1015.04 1015.52 1015.92 1016.16 1016.28 1016.44 1016.60 1016.92 1017.36 1017.48 1017.60 1017.68 1017.68 1017.84 1018.04 1018.20 1018.08 1018.12 1018.32 1018.92 1018.92 1018.92 1019.08 1019.28 1019.84 1020.12 1020.04 1020.12 1020.48 1020.52 1020.60 1020.48 1020.80 1020.88 1021.24 1020.92 1020.68 1020.80 1020.60
1009.44 1009.68 1009.96 1010.16 1010.44 1010.56 1010.76 1010.84 1010.88 1011.28 1011.76 1011.80 1011.88 1012.12 1012.32 1012.44 1012.52 1012.72 1012.96 1013.20 1013.44 1013.60 1013.88 1014.24 1014.60 1015.00 1015.52 1015.84 1016.08 1016.16 1016.40 1016.56 1016.92 1017.12 1017.20 1017.40 1017.36 1017.48 1017.68 1017.88 1017.80 1017.72 1017.88 1018.60 1018.68 1018.60 1018.64 1019.20 1019.60 1019.92 1020.00 1020.04 1020.24 1020.32 1020.12 1020.28 1020.56 1020.76 1021.44 1021.24 1020.76 1020.52 1020.80
1009.08 1009.32 1009.48 1009.68 1010.00 1010.28 1010.40 1010.44 1010.48 1010.96 1011.24 1011.28 1011.40 1011.56 1011.84 1012.00 1012.16 1012.36 1012.60 1012.76 1012.96 1013.16 1013.32 1013.72 1014.16 1014.56 1015.00 1015.36 1015.68 1015.84 1015.96 1016.16 1016.48 1016.84 1017.00 1017.04 1017.00 1017.00 1017.32 1017.52 1017.60 1017.56 1017.72 1018.16 1018.16 1018.16 1018.52 1019.28 1019.36 1019.64 1019.68 1019.68 1019.96 1020.04 1020.08 1020.32 1020.44 1020.64 1020.92 1021.20 1020.52 1020.60 1020.64
1008.64 1008.84 1009.08 1009.16 1009.48 1009.76 1010.08 1010.20 1010.20 1010.44 1010.64 1010.80 1011.00 1011.12 1011.16 1011.44 1011.72 1012.04 1012.24 1012.40 1012.52 1012.72 1012.88 1013.24 1013.72 1014.12 1014.44 1014.76 1015.08 1015.32 1015.56 1015.84 1016.00 1016.24 1016.44 1016.52 1016.60 1016.68 1016.88 1017.16 1017.16 1017.24 1017.56 1017.96 1017.88 1017.92 1018.52 1018.88 1019.08 1019.36 1019.64 1019.68 1019.76 1019.76 1019.72 1019.84 1019.96 1020.08 1020.32 1020.92 1020.52 1020.32 1020.48
1008.32 1008.48 1008.68 1008.76 1009.04 1009.24 1009.52 1009.76 1009.80 1009.96 1010.24 1010.48 1010.56 1010.76 1010.92 1011.00 1011.32 1011.60 1011.88 1012.00 1012.12 1012.28 1012.48 1012.72 1013.28 1013.72 1013.96 1014.20 1014.48 1014.76 1014.96 1015.24 1015.52 1015.76 1015.96 1016.08 1016.08 1016.16 1016.36 1016.68 1016.72 1016.80 1017.20 1017.72 1017.72 1017.92 1018.20 1018.80 1018.96 1019.20 1019.44 1019.40 1019.36 1019.24 1019.32 1019.44 1019.68 1019.80 1019.92 1020.32 1020.48 1020.12 1020.04
1007.88 1008.00 1008.16 1008.32 1008.52 1008.76 1008.92 1009.24 1009.28 1009.56 1009.72 1009.96 1010.28 1010.52 1010.68 1010.80 1010.92 1011.24 1011.48 1011.68 1011.80 1011.96 1012.08 1012.36 1012.80 1013.20 1013.56 1013.84 1014.12 1014.28 1014.48 1014.76 1015.04 1015.24 1015.44 1015.60 1015.64 1015.72 1015.92 1016.12 1016.24 1016.32 1016.80 1017.36 1017.52 1017.60 1017.84 1018.28 1018.44 1018.76 1019.00 1019.00 1018.92 1018.88 1019.16 1019.28 1019.52 1019.68 1019.72 1019.76 1020.08 1020.40 1020.16
1007.24 1007.40 1007.60 1007.80 1008.04 1008.32 1008.48 1008.64 1008.80 1009.08 1009.28 1009.48 1009.84 1010.20 1010.36 1010.52 1010.60 1010.76 1011.04 1011.36 1011.60 1011.80 1011.96 1012.12 1012.52 1012.84 1013.08 1013.36 1013.72 1013.96 1014.20 1014.44 1014.68 1014.92 1015.04 1015.12 1015.20 1015.24 1015.40 1015.56 1015.76 1015.92 1016.24 1016.64 1017.00 1017.24 1017.48 1017.84 1018.20 1018.56 1018.64 1018.68 1018.48 1018.56 1019.00 1019.28 1019.40 1019.60 1019.76 1019.84 1019.92 1019.96 1020.36
1006.80 1006.88 1007.00 1007.24 1007.56 1007.80 1007.96 1008.16 1008.40 1008.44 1008.68 1009.12 1009.40 1009.56 1009.84 1010.04 1010.12 1010.28 1010.52 1010.84 1011.08 1011.40 1011.76 1012.04 1012.24 1012.48 1012.68 1012.92 1013.40 1013.72 1013.96 1014.32 1014.56 1014.68 1014.80 1014.80 1014.80 1014.92 1015.00 1015.08 1015.24 1015.44 1015.68 1015.96 1016.44 1016.80 1017.00 1017.52 1017.88 1018.32 1018.32 1018.28 1018.24 1018.48 1018.96 1019.28 1019.56 1019.60 1019.80 1019.88 1019.76 1019.72 1019.76
1006.20 1006.40 1006.68 1006.92 1007.16 1007.36 1007.52 1007.72 1007.88 1008.04 1008.32 1008.60 1008.80 1008.88 1009.04 1009.40 1009.80 1010.00 1010.12 1010.28 1010.56 1010.84 1011.36 1011.72 1011.96 1012.28 1012.56 1012.84 1013.20 1013.56 1013.68 1014.04 1014.28 1014.44 1014.44 1014.56 1014.64 1014.72 1014.72 1014.72 1014.80 1014.92 1015.24 1015.44 1015.80 1016.20 1016.48 1016.88 1017.36 1017.84 1017.76 1017.80 1018.00 1018.28 1018.72 1019.12 1019.44 1019.44 1019.44 1019.56 1019.36 1019.12 1019.44
1005.80 1005.96 1006.24 1006.52 1006.64 1006.80 1007.08 1007.32 1007.56 1007.76 1007.88 1008.00 1008.20 1008.40 1008.60 1008.88 1009.20 1009.44 1009.72 1009.88 1010.08 1010.48 1011.00 1011.20 1011.60 1012.00 1012.32 1012.68 1013.04 1013.16 1013.32 1013.52 1013.76 1013.92 1014.08 1014.24 1014.44 1014.48 1014.44 1014.44 1014.48 1014.68 1015.04 1015.40 1015.68 1016.04 1016.40 1016.72 1016.76 1016.64 1016.68 1017.20 1017.44 1018.04 1018.52 1018.92 1019.04 1018.92 1018.88 1018.88 1018.72 1018.76 1019.12
1005.40 1005.60 1005.68 1005.88 1006.12 1006.36 1006.60 1006.84 1007.16 1007.36 1007.48 1007.68 1007.84 1008.08 1008.40 1008.64 1008.80 1008.88 1009.12 1009.44 1009.80 1010.04 1010.36 1010.60 1011.12 1011.56 1011.92 1012.20 1012.48 1012.76 1012.92 1013.04 1013.16 1013.40 1013.72 1014.04 1014.28 1014.36 1014.20 1014.08 1014.20 1014.64 1015.12 1015.56 1015.72 1015.92 1016.28 1016.56 1016.76 1016.80 1016.80 1016.80 1016.96 1017.32 1017.92 1018.56 1018.68 1018.56 1018.44 1018.12 1018.04 1018.32 1018.68
1004.96 1005.08 1005.16 1005.40 1005.60 1005.84 1006.08 1006.36 1006.68 1006.92 1007.12 1007.36 1007.52 1007.72 1008.08 1008.16 1008.32 1008.56 1008.76 1009.00 1009.36 1009.56 1009.80 1010.08 1010.84 1011.28 1011.48 1011.80 1012.08 1012.28 1012.44 1012.52 1012.68 1012.92 1013.32 1013.60 1013.72 1013.72 1013.76 1013.80 1013.96 1014.24 1014.88 1015.08 1015.36 1015.96 1016.24 1016.44 1016.52 1016.64 1016.76 1016.84 1016.96 1017.08 1017.16 1017.56 1018.00 1018.24 1017.88 1017.72 1017.92 1017.88 1018.20
1004.56 1004.60 1004.72 1004.88 1005.04 1005.28 1005.60 1005.92 1006.20 1006.48 1006.72 1006.84 1007.16 1007.48 1007.56 1007.76 1007.92 1008.08 1008.36 1008.64 1008.88 1009.04 1009.24 1009.56 1010.40 1010.96 1011.12 1011.48 1011.92 1012.12 1012.00 1011.96 1012.16 1012.44 1012.72 1013.00 1013.04 1013.04 1013.08 1013.44 1013.84 1014.08 1014.40 1015.00 1015.16 1015.48 1016.00 1016.32 1016.48 1016.44 1016.48 1016.64 1016.84 1016.96 1017.08 1017.32 1017.56 1017.56 1017.24 1017.28 1017.56 1017.60 1017.64
1004.20 1004.12 1004.16 1004.32 1004.56 1004.84 1005.12 1005.44 1005.68 1005.84 1006.20 1006.48 1006.92 1007.20 1007.28 1007.44 1007.48 1007.64 1007.88 1008.08 1008.32 1008.40 1008.56 1009.00 1009.76 1010.44 1010.92 1011.36 1011.72 1011.92 1011.56 1011.64 1011.92 1012.16 1012.28 1012.32 1012.40 1012.32 1012.60 1013.08 1013.68 1014.04 1013.96 1014.56 1014.88 1015.00 1015.52 1015.92 1016.32 1016.60 1016.56 1016.40 1016.40 1016.68 1016.92 1017.08 1017.28 1017.48 1017.72 1017.24 1016.92 1017.24 1017.04
1003.72 1003.68 1003.76 1003.92 1004.12 1004.32 1004.64 1004.92 1005.24 1005.40 1005.64 1006.04 1006.52 1006.80 1006.96 1007.20 1007.12 1007.16 1007.32 1007.48 1007.68 1007.96 1008.00 1008.52 1009.32 1010.08 1010.76 1011.16 1011.48 1011.76 1011.32 1011.36 1011.64 1011.92 1012.00 1011.92 1011.76 1011.96 1012.04 1012.44 1012.92 1013.24 1013.36 1013.80 1014.24 1014.36 1014.84 1015.48 1016.08 1016.52 1016.56 1016.36 1016.12 1016.12 1016.32 1016.40 1016.56 1016.76 1016.80 1016.80 1016.64 1016.48 1016.52
1003.04 1003.24 1003.36 1003.52 1003.72 1003.92 1004.20 1004.52 1004.80 1004.96 1005.28 1005.60 1005.88 1006.12 1006.40 1006.56 1006.84 1006.96 1006.92 1007.08 1007.24 1007.48 1007.52 1008.24 1008.96 1009.76 1010.48 1010.92 1011.36 1011.48 1011.08 1011.24 1011.48 1011.68 1011.88 1011.88 1011.72 1011.84 1011.96 1012.20 1012.52 1012.64 1012.56 1013.00 1013.64 1014.16 1014.40 1014.92 1015.56 1016.08 1016.52 1016.48 1016.24 1015.84 1015.68 1015.52 1015.68 1015.96 1016.20 1016.28 1016.44 1016.36 1016.16
1002.28 1002.60 1002.80 1003.12 1003.36 1003.52 1003.80 1004.08 1004.32 1004.44 1004.88 1005.12 1005.44 1005.72 1005.92 1006.12 1006.24 1006.44 1006.52 1006.64 1006.92 1007.08 1007.28 1008.20 1008.72 1009.36 1009.96 1010.44 1010.92 1010.72 1010.80 1011.04 1011.20 1011.40 1011.64 1011.68 1011.76 1011.88 1012.00 1011.96 1012.08 1012.24 1012.24 1012.40 1013.04 1013.88 1014.24 1014.32 1014.52 1015.04 1015.56 1015.92 1015.96 1015.76 1015.40 1015.20 1015.44 1015.72 1016.00 1016.28 1016.32 1016.48 1016.76
1001.44 1001.84 1002.16 1002.56 1002.92 1003.12 1003.28 1003.48 1003.80 1004.04 1004.36 1004.64 1005.04 1005.24 1005.32 1005.56 1005.68 1005.88 1006.12 1006.28 1006.36 1006.72 1006.84 1007.84 1008.40 1008.96 1009.48 1009.92 1009.96 1009.96 1010.20 1010.56 1010.88 1011.08 1011.12 1011.28 1011.32 1011.40 1011.48 1011.76 1011.92 1011.88 1012.08 1012.20 1012.72 1013.56 1014.20 1014.04 1013.76 1014.00 1014.52 1015.08 1015.40 1015.40 1015.16 1014.84 1015.00 1015.44 1015.72 1016.04 1016.32 1016.52 1016.76
1000.64 1001.04 1001.44 1001.72 1002.20 1002.68 1002.96 1003.20 1003.40 1003.64 1003.88 1004.04 1004.40 1004.68 1004.84 1005.00 1005.20 1005.32 1005.52 1005.80 1006.08 1006.36 1006.40 1007.36 1008.08 1008.64 1009.16 1009.56 1009.72 1009.48 1009.64 1009.96 1010.52 1010.64 1010.80 1010.96 1011.08 1011.20 1011.28 1011.64 1012.00 1011.88 1011.72 1011.80 1012.44 1013.08 1013.76 1013.88 1013.44 1013.32 1013.56 1014.12 1014.48 1014.64 1014.44 1014.40 1014.48 1014.76 1015.24 1015.76 1016.04 1016.32 1016.48
1000.00 1000.40 1000.80 1001.12 1001.56 1002.00 1002.40 1002.80 1003.08 1003.36 1003.48 1003.56 1003.92 1004.16 1004.48 1004.64 1004.76 1004.80 1004.84 1005.28 1005.68 1006.00 1006.12 1006.76 1007.60 1008.00 1008.56 1009.12 1009.36 1009.08 1009.16 1009.76 1010.12 1010.24 1010.36 1010.60 1010.80 1010.96 1011.08 1011.04 1011.44 1011.92 1011.88 1012.00 1012.32 1012.68 1013.08 1013.36 1013.04 1012.80 1012.84 1013.20 1013.56 1013.80 1013.48 1013.76 1013.80 1013.88 1014.24 1014.64 1014.88 1015.24 1015.48
999.48 999.80 1000.16 1000.60 1001.04 1001.52 1001.92 1002.32 1002.76 1002.96 1003.20 1003.36 1003.52 1003.84 1004.16 1004.28 1004.40 1004.52 1004.56 1004.68 1004.88 1005.40 1005.56 1006.16 1007.32 1007.72 1008.12 1008.56 1008.96 1008.80 1008.68 1009.04 1009.28 1009.64 1009.96 1010.40 1010.52 1010.44 1010.40 1010.44 1010.32 1011.04 1011.84 1012.16 1012.44 1012.52 1012.84 1013.04 1012.80 1012.24 1012.08 1012.08 1012.28 1012.44 1012.76 1013.16 1013.52 1013.72 1013.76 1014.08 1014.36 1014.52 1014.80
998.92 999.28 999.68 1000.20 1000.76 1001.24 1001.40 1001.64 1002.00 1002.36 1002.68 1003.16 1003.48 1003.72 1003.96 1004.08 1004.16 1004.28 1004.36 1004.40 1004.44 1004.84 1005.08 1005.44 1006.60 1007.56 1007.72 1008.12 1008.36 1008.52 1008.00 1008.04 1008.36 1008.92 1009.56 1009.76 1009.84 1009.84 1009.84 1009.60 1009.68 1010.08 1011.12 1011.88 1012.24 1012.52 1012.60 1012.72 1012.64 1012.04 1011.24 1011.28 1011.72 1012.32 1012.52 1012.56 1012.72 1013.36 1013.48 1013.56 1013.64 1013.80 1013.88
998.72 998.80 999.32 999.84 1000.40 1000.84 1001.04 1001.32 1001.68 1001.96 1002.28 1002.72 1003.12 1003.52 1003.64 1003.76 1003.88 1004.08 1004.12 1004.20 1004.16 1004.32 1004.60 1005.12 1005.88 1006.80 1007.40 1007.68 1008.00 1008.20 1007.80 1007.56 1008.08 1008.60 1008.88 1009.24 1009.24 1009.32 1009.24 1009.24 1009.20 1009.64 1010.60 1011.20 1011.72 1012.08 1012.32 1012.52 1012.96 1012.16 1011.00 1011.16 1011.60 1012.12 1012.36 1012.36 1012.28 1012.44 1012.88 1012.84 1012.84 1013.00 1013.12
998.32 998.40 998.88 999.44 999.92 1000.40 1000.72 1001.00 1001.44 1001.84 1002.16 1002.56 1002.92 1003.24 1003.36 1003.52 1003.84 1004.52 1004.40 1004.00 1003.92 1004.04 1004.12 1004.44 1005.56 1006.20 1007.00 1007.48 1007.76 1007.76 1007.68 1007.72 1007.92 1008.12 1008.28 1008.36 1008.36 1008.40 1008.52 1008.56 1008.56 1009.20 1010.00 1010.68 1011.24 1011.76 1012.12 1012.52 1012.40 1011.80 1011.84 1011.48 1011.36 1011.84 1012.04 1012.04 1012.12 1011.96 1012.12 1012.44 1012.40 1012.28 1012.28
Wind_Speed
10 8 9 8 7 7 9 10 9 9 11 11 11 12 13 12 10 10 10 10 10 9 9 10 10 9 9 9 9 10 10 9 9 8 8 8 8 7 9 9 8 7 6 6 6 6 5 3 6 7 7 8 9 8 10 10 9 8 9 8 9 9 8
9 8 7 8 8 8 10 10 9 9 10 10 11 11 13 13 11 9 10 10 10 10 9 10 10 11 11 10 10 10 11 10 9 8 7 7 8 6 7 8 8 7 6 5 5 5 5 4 3 5 6 7 7 7 8 9 7 9 10 11 11 10 9
9 9 8 9 9 10 10 10 9 8 8 9 10 11 12 14 12 10 10 10 10 11 10 11 11 11 11 10 11 11 11 10 8 9 8 8 7 7 7 6 7 7 6 5 6 6 5 4 4 4 1 7 7 7 8 8 10 11 10 10 11 11 10
12 11 10 10 11 10 10 10 9 8 8 8 9 9 12 13 12 11 10 10 10 10 11 11 10 10 10 11 10 11 11 11 9 9 9 9 7 7 8 7 7 7 6 6 5 5 4 3 4 4 4 1 5 5 8 10 9 10 10 10 10 11 10
12 11 13 13 12 12 10 10 9 9 9 8 8 9 10 12 11 10 10 10 10 11 11 10 9 9 9 10 10 10 10 11 10 9 9 9 10 7 8 7 7 6 6 6 5 4 4 3 3 5 5 2 4 5 3 7 7 8 9 10 10 11 11
14 14 13 13 11 10 10 10 10 10 10 9 9 10 11 13 12 10 10 9 9 10 11 12 10 11 10 9 10 11 11 11 10 10 9 10 10 9 8 8 7 6 6 4 4 4 3 3 3 5 3 3 5 3 6 5 5 7 9 10 10 11 11
14 15 14 12 12 10 10 10 10 10 10 11 11 11 11 12 13 11 11 11 11 11 11 12 12 11 11 10 10 10 11 10 10 11 10 10 10 10 8 7 7 6 6 4 4 3 3 4 4 5 4 4 5 3 6 5 6 5 8 9 10 10 11
13 13 14 13 11 11 10 10 10 10 9 10 11 10 11 12 14 12 12 12 11 11 11 12 11 11 11 10 9 10 10 9 10 10 10 10 10 11 10 8 7 7 6 5 4 3 3 4 5 5 5 5 4 4 4 4 4 8 6 7 9 11 11
11 12 13 13 11 10 9 9 9 8 7 8 9 11 13 12 12 12 12 12 12 12 12 12 12 11 11 11 10 9 10 8 10 11 10 10 11 11 10 9 8 8 6 5 5 3 4 4 5 6 6 6 6 4 5 4 4 6 9 7 8 10 10
16 15 14 16 14 9 9 9 9 9 8 9 10 12 13 12 11 12 12 12 12 12 12 12 12 12 11 11 10 10 10 10 10 11 10 9 9 10 9 10 8 7 6 5 4 4 5 4 5 4 5 6 5 5 2 4 6 6 8 8 7 8 11
15 15 16 15 13 9 11 10 10 9 12 11 11 10 12 13 13 13 11 11 12 12 12 12 12 12 12 10 11 11 10 10 10 9 9 9 9 9 9 8 8 8 6 5 5 6 5 5 6 6 5 5 4 5 5 6 3 3 2 5 6 7 10
16 14 13 15 14 14 13 12 13 13 11 11 10 10 11 12 11 11 11 11 12 13 12 12 12 12 13 11 12 11 10 10 10 10 9 10 9 9 9 10 9 8 7 6 6 6 5 6 5 5 6 4 4 6 5 6 6 2 2 5 4 5 10
16 15 13 14 15 16 14 14 13 14 13 12 11 10 10 11 12 11 11 11 11 12 13 12 12 12 12 12 12 11 11 11 12 11 11 10 9 9 10 11 10 8 7 6 7 7 6 5 5 6 5 5 5 7 6 7 6 3 3 3 5 6 9
17 14 15 16 15 15 13 12 12 12 11 11 10 10 11 13 13 11 11 11 12 12 12 12 11 11 13 14 13 12 12 12 12 11 11 12 11 10 11 11 11 9 8 8 7 5 5 6 6 5 6 5 7 7 8 7 6 5 4 3 4 6 7
17 15 16 16 16 14 16 13 12 13 15 12 13 13 13 11 10 11 12 13 13 13 13 13 13 12 14 14 14 11 12 13 13 13 12 13 12 10 10 12 11 10 9 9 8 8 6 6 7 7 7 7 7 7 7 6 6 7 6 4 6 6 7
16 17 17 16 16 16 16 16 13 13 14 13 14 15 13 12 12 12 13 13 14 14 14 13 13 14 14 15 15 14 13 13 13 13 13 13 13 12 12 11 12 10 8 10 9 8 5 7 8 8 9 7 7 7 6 7 8 7 8 6 8 7 8
18 17 17 15 16 15 14 15 14 16 16 12 14 14 15 15 13 13 13 13 14 14 13 13 15 15 15 15 15 15 14 14 13 13 13 13 13 13 13 12 12 11 10 11 10 8 8 8 7 7 7 7 7 8 8 8 9 7 7 7 8 8 8
17 18 18 17 17 17 16 16 15 16 15 15 14 13 13 13 13 13 12 13 14 14 14 14 15 16 15 15 15 15 14 14 13 13 13 13 13 13 13 13 12 12 12 11 9 8 9 10 9 9 8 8 7 6 6 7 7 9 8 9 7 7 7
18 19 19 19 18 17 17 17 16 14 15 16 15 13 13 13 13 14 13 13 13 13 13 13 15 15 15 15 15 14 14 14 13 13 13 13 13 13 13 14 13 12 12 12 11 10 10 11 9 9 9 8 7 7 7 7 8 9 8 7 7 8 8
18 18 17 17 17 17 18 17 17 16 15 16 16 15 13 14 13 14 14 13 13 13 13 12 13 15 15 15 15 15 14 14 12 11 12 14 13 13 14 14 13 13 13 12 11 10 10 10 9 10 9 8 8 7 7 7 8 8 8 8 8 9 9
18 18 17 17 17 18 18 17 17 17 16 16 15 16 15 13 12 12 13 14 14 12 12 13 14 16 15 14 14 14 13 12 11 11 12 13 13 13 14 14 14 14 13 13 10 10 10 10 9 10 9 8 8 8 8 8 9 8 9 10 10 9 10
16 17 17 17 18 18 18 17 17 17 16 15 14 16 16 15 14 14 14 13 14 13 14 14 14 15 15 15 14 13 12 12 11 12 13 13 13 13 14 13 14 14 13 12 13 9 10 10 10 10 9 9 8 9 9 8 10 10 10 11 11 9 10
16 17 18 18 19 18 17 17 17 17 17 17 15 15 15 16 15 14 14 15 14 13 13 13 13 17 14 11 12 10 11 12 13 14 13 12 13 13 14 13 12 13 11 10 13 13 13 13 13 9 8 10 9 10 10 10 10 11 11 12 11 11 11
17 18 18 18 18 19 19 16 16 17 17 17 16 15 14 16 16 14 15 14 15 13 13 12 16 19 19 17 13 12 12 12 13 14 12 12 12 13 13 14 13 8 8 8 11 14 14 15 14 11 4 8 11 11 11 12 11 11 12 11 10 11 11
19 18 18 19 19 19 18 18 18 17 17 17 16 15 16 17 17 15 13 14 14 13 12 13 18 19 19 18 15 12 12 12 12 12 12 13 13 13 13 13 12 9 10 14 12 10 12 15 16 14 9 7 11 11 9 10 12 12 12 11 11 11 11
18 18 18 18 18 18 18 18 19 19 19 17 16 17 17 17 16 15 14 15 14 14 12 15 18 19 18 18 17 14 13 13 11 12 13 14 15 14 12 12 11 9 11 11 13 13 11 12 13 16 12 8 8 10 11 11 10 8 8 13 11 11 12
18 18 18 18 18 18 19 18 18 18 16 17 17 18 17 18 18 17 16 15 14 13 13 14 19 19 19 20 19 16 12 11 10 13 15 15 15 15 13 11 10 12 12 12 14 14 14 15 14 12 10 9 10 11 11 11 12 14 10 9 12 12 10
18 18 19 18 18 19 19 18 18 17 16 17 18 18 18 18 18 17 17 15 14 13 11 18 20 20 20 21 21 16 11 11 11 11 12 15 15 13 13 12 14 15 14 13 13 15 14 14 13 12 13 13 13 12 14 14 14 12 11 9 11 13 11
17 18 19 19 19 19 18 18 18 17 15 15 15 16 16 17 18 17 17 16 14 14 10 20 21 21 21 21 20 12 11 13 12 11 11 11 12 12 12 14 14 14 16 16 15 17 15 15 14 13 13 12 12 12 12 14 16 15 15 15 13 12 10
18 18 19 19 19 19 18 18 17 16 16 16 16 17 17 16 16 18 18 17 16 13 11 17 22 23 22 22 15 11 12 13 11 12 10 13 12 12 13 14 14 10 13 15 15 19 15 16 13 13 12 12 12 11 11 11 15 18 16 16 14 9 5
19 18 18 20 19 17 17 16 17 15 17 16 16 17 16 16 16 16 17 17 15 13 11 15 21 21 21 21 17 13 13 12 11 11 10 11 11 11 14 14 14 12 11 13 15 20 18 15 13 14 13 13 13 14 12 11 9 11 16 15 14 11 5
19 18 19 19 17 18 18 17 15 16 16 16 16 15 15 15 16 16 16 16 14 14 10 14 20 19 20 20 16 10 12 12 12 13 12 10 9 9 11 10 14 13 12 11 19 21 21 17 12 13 14 14 14 14 13 13 12 12 12 12 13 11 10
18 18 18 18 17 18 16 15 16 15 17 15 14 15 16 15 16 15 16 16 13 13 12 9 16 21 21 21 19 13 13 12 13 14 13 11 11 12 12 12 12 16 14 12 18 21 22 21 15 13 13 13 14 15 13 13 14 12 12 13 14 16 17
19 18 16 16 16 16 15 15 15 16 16 14 15 15 16 15 15 15 15 16 15 16 13 12 13 20 21 22 22 18 13 13 12 11 11 11 12 12 12 13 12 15 18 13 15 19 21 22 19 14 15 14 15 12 11 12 13 12 12 12 12 12 13
17 15 15 16 17 18 17 17 16 17 15 14 17 16 16 16 15 15 15 15 15 17 15 14 12 18 22 22 23 22 13 14 13 12 11 12 12 13 13 13 13 13 20 18 15 17 21 22 24 15 16 16 13 9 10 11 11 11 14 12 11 12 13
15 13 14 16 17 18 17 18 17 16 16 17 16 16 17 16 15 14 14 14 13 14 14 12 19 16 20 22 24 23 19 12 14 12 12 13 13 13 12 13 14 13 19 19 18 19 20 23 18 16 20 14 12 13 12 12 12 13 14 14 13 13 13
17 14 16 16 18 18 18 18 16 13 14 14 13 16 16 14 12 13 15 13 12 11 11 12 15 19 17 22 22 23 22 17 11 14 14 13 12 13 13 14 9 16 17 18 20 19 18 18 17 23 19 16 14 12 11 14 12 13 13 14 15 14 14
Wind_Direction
210 209 195 192 187 188 186 182 181 182 183 181 187 194 195 192 190 195 204 204 206 203 203 209 209 206 207 203 197 201 198 197 196 208 202 200 204 209 216 231 240 249 262 269 276 294 308 250 198 208 205 206 207 212 221 222 213 198 205 186 207 204 206
215 213 193 187 185 188 188 181 182 177 181 184 188 197 200 194 189 194 201 203 206 205 206 212 211 209 210 206 195 201 203 200 201 209 215 209 212 215 190 215 231 233 233 246 277 274 279 281 259 191 201 183 197 213 219 226 206 216 214 207 209 208 202
211 211 200 191 191 194 189 178 175 177 180 183 189 199 205 199 189 193 199 206 207 208 210 214 213 211 208 208 200 203 204 204 198 206 214 218 216 215 218 212 215 223 232 238 240 249 243 249 291 311 86 187 209 212 209 212 213 216 214 211 210 208 206
212 205 195 191 189 188 189 182 180 179 182 184 187 197 210 205 188 189 200 207 209 211 212 216 214 211 206 210 209 205 203 204 204 206 213 225 225 221 223 222 225 222 229 232 233 225 240 246 248 251 255 120 201 237 191 181 201 214 213 206 210 210 205
218 211 204 198 193 191 188 185 184 182 183 186 188 196 206 211 193 184 190 206 210 212 214 217 217 212 211 212 213 213 216 214 213 210 216 221 221 224 223 230 236 241 243 250 261 268 260 270 287 297 309 127 236 247 134 168 193 214 213 209 211 213 209
220 221 214 209 198 198 191 186 186 189 182 182 187 195 201 209 202 183 185 199 208 209 218 217 217 219 217 214 218 217 219 217 216 216 220 221 219 221 222 224 235 240 247 248 254 267 276 289 269 276 278 249 268 187 160 180 196 210 215 213 208 210 211
217 223 227 216 200 198 193 187 188 193 190 189 188 196 195 203 208 191 180 197 208 209 211 217 216 217 219 219 217 221 221 219 220 218 223 223 223 224 229 235 234 240 251 254 260 262 265 261 269 267 258 220 219 253 163 197 192 193 209 217 208 209 210
220 224 227 227 206 194 193 187 188 193 199 190 191 189 190 200 211 201 180 188 203 208 209 215 216 216 214 218 225 222 223 220 221 222 224 224 225 225 227 235 243 246 248 251 249 249 238 255 255 255 260 257 225 226 192 213 202 215 221 201 208 206 211
218 223 225 225 219 194 188 186 184 192 204 196 189 184 189 196 202 204 187 183 195 206 208 213 216 217 211 213 221 221 221 216 221 220 226 224 229 228 229 233 242 248 248 251 247 239 248 254 257 264 248 261 284 274 211 225 229 237 220 202 196 205 203
218 222 223 223 218 196 192 195 190 191 202 207 195 188 186 193 198 199 197 184 186 199 206 210 213 217 213 213 217 218 220 218 220 224 224 227 228 230 232 229 236 242 245 249 250 240 246 249 265 272 271 264 283 296 245 239 230 243 207 190 191 199 205
220 220 224 223 216 197 196 202 197 194 200 200 199 186 183 187 194 195 198 193 187 189 197 206 210 214 213 215 218 218 219 220 221 225 225 226 230 231 228 227 227 235 231 228 227 237 244 251 241 241 249 261 255 233 218 261 286 200 186 183 201 193 189
223 218 219 224 219 213 199 199 198 200 200 192 194 186 185 188 191 192 196 198 202 199 193 198 205 213 213 216 217 218 216 219 221 222 223 221 226 228 228 228 227 233 223 211 219 234 239 234 244 236 241 233 213 225 234 260 273 167 156 181 212 201 166
224 222 219 221 221 220 206 201 197 196 202 195 198 187 188 191 190 191 193 194 194 202 204 200 202 212 215 218 217 215 215 215 221 221 223 220 222 224 228 232 232 232 224 210 214 223 228 236 234 239 235 225 205 214 230 254 256 205 167 212 195 210 177
224 220 219 220 224 224 218 204 203 200 201 198 187 188 197 196 191 191 192 194 194 192 196 197 197 206 218 219 218 216 215 215 220 221 222 222 221 225 228 236 239 235 218 214 230 225 221 214 209 223 235 217 214 207 225 243 244 217 143 256 199 197 185
223 223 218 219 221 224 223 213 204 204 212 192 189 196 196 192 190 191 198 199 200 199 196 196 194 200 213 218 217 215 214 214 217 220 218 219 216 217 223 232 239 238 220 209 217 226 219 217 206 210 216 212 208 217 232 251 233 235 185 193 212 187 186
222 220 219 219 219 223 226 220 211 207 208 198 197 201 195 195 194 195 199 202 206 208 199 202 207 204 207 215 216 213 212 212 214 218 219 221 219 213 215 220 229 233 220 222 228 236 214 208 203 210 216 209 210 216 222 216 227 219 202 181 204 195 196
220 218 217 215 214 212 218 223 216 220 221 204 198 202 203 199 197 196 199 203 207 209 200 205 213 213 212 209 213 214 211 211 211 212 218 220 220 220 217 215 218 220 214 218 228 226 207 211 206 208 211 206 211 221 218 213 224 233 203 193 202 205 190
218 217 216 216 213 214 216 219 218 219 219 217 203 196 197 194 196 196 201 206 207 206 202 204 215 216 217 216 215 214 211 209 211 211 215 222 223 223 220 221 217 216 210 217 218 216 205 197 196 197 201 206 221 228 223 218 216 218 210 201 197 215 190
218 217 216 216 216 217 220 220 217 215 220 219 212 206 194 195 199 196 200 206 212 210 206 202 214 219 217 215 215 214 214 211 210 213 216 220 223 224 225 223 222 219 209 208 212 208 204 206 205 201 199 209 221 224 222 218 218 215 221 209 192 197 190
220 219 215 214 215 218 219 219 218 215 214 218 214 212 204 194 197 201 199 200 203 206 207 209 213 218 215 213 213 211 209 209 208 213 220 222 225 225 225 224 224 221 217 208 213 208 205 202 200 202 201 213 229 230 216 217 213 211 211 207 201 198 194
221 220 218 216 214 216 218 218 217 217 215 214 215 214 212 205 201 201 200 199 202 202 206 210 213 214 214 213 209 209 202 201 203 213 217 224 224 225 223 224 223 223 219 206 203 203 202 200 195 198 201 215 226 224 214 211 212 210 206 205 207 197 202
220 218 217 215 214 214 216 217 216 215 213 213 214 216 216 213 206 205 207 203 201 206 211 211 212 213 214 212 209 199 195 196 203 215 217 219 223 224 225 224 225 225 219 213 184 195 190 192 191 198 203 209 219 220 214 206 208 206 204 205 206 203 202
220 217 215 214 214 213 214 214 213 213 213 213 214 215 215 215 211 206 206 206 205 204 209 214 195 186 185 194 196 194 194 198 206 216 218 218 218 221 222 223 223 223 205 184 169 172 174 189 209 214 211 198 208 205 209 208 206 206 206 207 208 203 203
220 218 216 214 213 214 213 211 210 211 212 212 213 209 211 214 214 209 205 202 200 202 205 208 178 178 180 183 191 191 194 198 203 211 213 215 217 216 219 221 222 167 157 155 170 168 173 190 202 213 234 194 192 196 198 206 210 207 211 218 210 205 204
221 217 216 213 212 213 212 212 210 210 210 210 208 210 210 213 211 207 203 200 199 200 201 186 169 179 177 178 190 192 196 199 193 195 204 211 216 216 216 220 219 190 195 205 199 180 184 193 197 205 200 200 198 211 220 211 206 208 216 217 213 208 203
227 217 213 212 211 211 210 211 211 210 211 209 208 209 211 210 208 205 202 201 197 196 201 175 171 179 179 178 188 197 205 208 197 198 203 206 211 213 217 217 214 205 205 190 203 195 189 197 202 200 190 194 215 215 224 246 268 263 231 222 221 213 208
231 223 215 210 208 207 209 210 209 209 209 208 208 209 210 209 208 205 203 203 199 197 204 168 172 177 182 183 188 197 211 201 201 207 211 208 209 212 210 209 199 209 207 193 207 202 199 204 200 201 196 194 196 207 220 230 247 258 261 253 221 222 209
224 225 218 214 211 208 207 207 208 208 207 205 205 207 206 207 208 205 199 199 197 194 197 163 173 175 181 184 188 196 206 200 205 209 218 218 212 205 199 201 205 207 207 202 203 204 200 200 195 196 200 199 201 200 205 209 214 226 230 231 230 227 223
218 221 221 215 213 209 206 204 204 205 203 203 206 207 207 210 208 206 201 199 197 193 172 159 166 173 178 185 181 190 201 206 211 213 218 229 223 215 210 209 208 206 207 207 195 200 192 192 187 189 196 203 207 208 206 205 203 209 219 220 224 230 230
214 216 218 217 214 211 206 202 204 204 203 203 202 204 206 205 207 207 205 203 200 195 176 166 168 174 176 177 170 190 195 204 215 217 215 223 224 219 219 217 214 204 206 215 177 181 185 185 179 180 186 197 208 212 213 203 191 196 211 235 245 258 350
210 211 211 213 214 212 208 205 203 203 205 199 201 201 203 203 203 204 203 201 200 193 186 163 168 170 170 170 175 183 192 199 211 219 217 221 227 223 223 216 215 203 193 202 161 176 186 190 186 180 183 192 202 213 213 206 192 197 201 213 229 243 257
208 208 209 206 206 209 207 204 205 205 206 204 203 203 204 204 201 201 198 197 192 194 187 159 166 165 168 171 177 185 191 201 206 214 218 219 219 228 227 206 214 222 208 185 165 177 184 195 199 184 188 196 206 212 211 203 202 196 198 205 216 217 230
206 205 206 203 201 206 204 203 205 203 205 204 203 205 204 208 204 202 194 192 183 194 194 162 167 166 166 172 181 190 193 197 208 212 216 219 223 225 230 233 202 214 223 189 172 180 185 195 205 195 195 203 209 215 209 207 207 204 195 202 208 213 219
200 199 203 204 201 202 203 200 201 204 204 205 206 205 205 205 202 200 196 191 182 188 197 170 169 168 168 173 183 192 189 200 206 212 217 218 227 231 232 231 237 193 207 203 182 184 188 198 211 209 204 210 211 212 204 212 204 201 204 196 201 203 207
195 191 197 204 203 204 204 203 203 202 201 201 207 207 205 203 200 197 194 188 182 183 193 182 156 175 171 176 181 196 202 199 206 209 214 223 223 232 233 235 241 198 187 199 197 189 196 201 211 220 214 208 207 176 205 215 218 198 219 214 205 206 208
191 186 190 200 205 205 203 204 203 204 203 204 205 208 204 201 201 197 191 189 181 181 177 176 149 170 175 177 185 194 206 204 180 203 216 222 225 231 234 236 242 188 170 192 199 200 202 208 210 225 222 199 199 185 200 216 223 218 223 223 215 212 211
195 182 187 195 204 205 204 202 201 203 201 203 202 203 200 195 196 201 202 182 178 181 178 173 157 161 175 182 186 193 201 210 183 207 217 227 226 228 230 231 221 151 176 189 201 203 206 206 213 225 224 222 205 186 205 219 223 231 230 229 223 217 217